Location: Carabito
(9.8355°N, 67.9249°W)
Time: 01:43:18
(UTC+00:00)

CZ-4C R/B - Pass Details

Date: 23 May 2024
Orbit: 528 x 1465 km, 63.4° (Epoch: 12 June)

Event Time Altitude Azimuth Distance (km) Brightness Sun altitude
Exits shadow 08:19:11 45° 9° (N) 747 2.1 -25.6°
Drops below altitude 10° 08:22:09 10° 20° (NNE) 1,882 4.6 -25.0°
Sets 08:24:31 0° 22° (NNE) 2,869 5.7 -24.5°
